Retour au catalogue

ONEWEB-0096

ActifCommunicationsPO
NORAD 45439·PAYLOAD·🇬🇧 United Kingdom

Lancé Mar 21, 2020 depuis Baikonur Cosmodrome

Loading…

Prochains Passages (prochaines 24 heures)

TLE

FraisSource: CelesTrak SupGP

Époque: Sep 14, 2026, 22:56 UTC

1 45439C 20020R   26257.95572176 -.00002791  00000+0 -78835-2 0  2573
2 45439  87.8969   3.2200 0001706 105.7621 354.1905 13.11416020    14

Suivez ONEWEB-0096 en temps réel avec AllMySat

Download on the App Store